Location: Burgberg
(50.1428°N, 11.0671°E)
Time: 00:17:26
(UTC+00:00)

STARLINK-39 - Pass Details

Date: 26 January 2020
Orbit: 528 x 531 km, 53.0° (Epoch: 22 February)

Event Time Altitude Azimuth Distance (km) Brightness Sun altitude
Exits shadow 05:05:38 43° 276° (W) 752 3.8 -17.9°
Maximum altitude 05:06:48 70° 345° (NNW) 567 3.5 -17.7°
Drops below altitude 10° 05:10:50 10° 70° (ENE) 1,780 7.1 -17.1°
Sets 05:13:04 0° 73° (ENE) 2,671 8.3 -16.7°
